Regional Weather Roundup
Issued by NWS

Home | Current Version | Previous Version | Graphics & Text | Print | Product List | Glossary On
Versions: 1 2 3 4 5 6 7 8 9 10 11 12 13 14 15 16 17 18 19 20 21 22 23 24 25 26 27 28 29 30 31 32 33 34 35 36 37 38 39 40 41 42 43 44 45 46 47 48 49 50
500
ASUS43 KFSD 221410
RWRSD

WEATHER ROUNDUP FOR SOUTH DAKOTA
NATIONAL WEATHER SERVICE SIOUX FALLS SD
900 AM CDT SUN OCT 22 2017

NOTE: "FAIR" INDICATES FEW OR NO CLOUDS BELOW 12,000 FEET WITH NO
SIGNIFICANT WEATHER AND/OR OBSTRUCTIONS TO VISIBILITY.


SDZ001>005-009-010-012>017-221500-
NORTHWEST AND NORTH CENTRAL SOUTH DAKOTA

CITY           SKY/WX    TMP DP  RH WIND       PRES   REMARKS
BUFFALO          N/A     37  19  48 SW8       29.79F
MOBRIDGE       PTCLDY    39  30  70 SE5       29.92R
$$

SDZ012>016-024>037-041>051-057-063-072>074-221500-
SOUTHWEST AND SOUTH CENTRAL SOUTH DAKOTA

CITY           SKY/WX    TMP DP  RH WIND       PRES   REMARKS
RAPID CTY ARPT CLOUDY    33  18  53 CALM      29.95S
PIERRE         CLEAR     35  28  75 SW6       29.97R
CUSTER         CLOUDY    36  16  44 SW10      29.99S
ELLSWORTH AFB  CLOUDY    36  17  46 W5        29.93F
PHILIP         CLEAR     30  26  85 W3        29.98S
PINE RIDGE     CLEAR     30  22  72 W6        30.02R WCI  24
SPEARFISH      FAIR      45  16  31 VRB7      29.93S
WINNER         FAIR      40  26  57 SW9       30.01S
$$

SDZ004>011-016>023-039-040-221500-
NORTHEAST SOUTH DAKOTA

CITY           SKY/WX    TMP DP  RH WIND       PRES   REMARKS
ABERDEEN       CLEAR     33  30  88 S5        29.96S WCI  29
WATERTOWN      SUNNY     37  34  89 S9        29.99R
BROOKINGS      SUNNY     37  32  82 S8        30.02R
SISSETON         N/A     45  33  63 SW14      29.94R
$$

SDZ017-020-022-023-036>040-048>070-221500-
SOUTHEAST SOUTH DAKOTA

CITY           SKY/WX    TMP DP  RH WIND       PRES   REMARKS
SIOUX FALLS    MOSUNNY   43  34  70 CALM      30.06R
HURON          PTCLDY    40  32  73 S6        30.01S
CHAMBERLAIN    CLEAR     37  32  81 CALM      30.02S
MITCHELL       MOSUNNY   42  31  64 SW8       30.04S
YANKTON        SUNNY     38  34  85 E3        30.07R
$$

ABBREVIATIONS USED IN REMARKS
   TC - TEMPERATURE IN CELSIUS
  WCI - WIND CHILL INDEX
   HX - HEAT INDEX
  VSB - VISIBILITY





USA.gov is the U.S. government's official web portal to all federal, state and local government web resources and services.